Location: Casselberry
(28.6778°N, 81.3278°W)
Time: 03:44:51
(UTC+00:00)

Daily predictions for brighter satellites

Satellite Brightness Start Highest point End
(mag) Time Altitude Azimuth Time Altitude Azimuth Time Altitude Azimuth
Cosmos 1437 3.0 00:00:18 10° N 00:03:06 37° E 00:05:54 10° SSE
GP-B 3.9 00:01:01 10° N 00:05:20 56° W 00:09:40 10° SSW
Cosmos 1844 4.4 00:01:11 10° SSE 00:06:07 31° ESE 00:11:03 10° NE
Delta 128 3.8 00:01:12 10° W 00:06:25 74° S 00:10:15 15° ESE
MOS 1 Rocket 3.4 00:02:51 10° NNE 00:06:57 41° E 00:10:59 10° S
SL-16 R/B 4.5 00:04:27 10° NW 00:09:09 27° WSW 00:13:50 10° SSW
Cosmos 1782 Rocket 4.2 00:05:31 10° SSW 00:09:50 61° W 00:14:13 10° N
BREEZE-M DEB (TANK) 3.5 00:07:39 10° WSW 00:10:00 45° NW 00:14:37 10° NE
Cosmos 1844 Rocket 2.9 00:05:40 10° S 00:10:53 44° ESE 00:16:09 10° NE
Cosmos 1025 Rocket 4.4 00:10:59 10° NNE 00:14:02 18° ENE 00:14:52 17° E
CZ-2D R/B 3.8 00:12:17 10° S 00:16:07 62° W 00:19:57 10° NNW
Cosmos 2151 Rocket 4.2 00:14:40 10° SSE 00:18:40 34° E 00:22:42 10° NNE
Cosmos 2150 Rocket 4.0 00:17:32 10° S 00:22:46 64° ESE 00:28:07 10° NNE
Cosmos 2084 Rocket 3.6 00:20:01 10° NNW 00:24:27 60° ENE 00:27:47 18° SE
Cosmos 1125 Rocket 3.8 00:22:11 10° S 00:27:09 43° E 00:32:08 10° NNE
USA 234 3.4 00:21:10 10° NE 00:27:31 53° SE 00:33:52 10° SSW
CZ-2C R/B 2.4 00:28:00 10° WNW 00:31:11 28° N 00:32:43 20° NE
Cosmos 1891 Rocket 4.4 00:26:36 10° S 00:32:47 84° E 00:38:52 10° N
Cosmos 1943 3.1 00:27:34 10° NNW 00:33:15 86° ENE 00:38:55 10° SSE
CSL-04 Debris 4.1 00:28:12 10° SSE 00:33:35 80° ENE 00:38:58 10° N
Exosat Rocket 3.9 00:28:49 10° S 00:35:12 52° ESE 00:40:15 10° NNE
NOSS 3-4 (A) 3.7 00:31:16 10° S 00:36:37 38° ESE 00:42:04 10° NE
NOSS 3-4 (C) 3.7 00:31:25 10° S 00:36:44 37° ESE 00:41:55 11° NE
CSL-04 Rocket 3.6 00:34:59 10° SSE 00:40:21 87° ENE 00:45:50 10° NNW
DMSP B5D2-2 4.5 00:35:40 10° NNE 00:40:36 39° E 00:45:30 10° SSE
Cosmos 1975 Rocket 3.5 00:38:20 10° NNW 00:42:36 61° W 00:46:50 10° S
Shenzhou-11 Module 3.5 00:45:49 10° WSW 00:46:55 24° W 00:46:55 24° W
Meteor 1-15 Rocket 4.2 00:44:42 10° S 00:50:08 57° E 00:55:40 10° NNE
HJ-1C 4.1 00:52:44 19° S 00:54:49 51° W 00:58:02 10° NNW
H-2A R/B 2.0 00:50:26 10° S 00:55:20 78° WSW 01:00:21 10° NNW
ATLAS 2AS CENTAUR R/B 3.0 00:51:10 10° S 00:58:43 58° ESE 01:06:29 10° NE
Cosmos 2034 Rocket 4.1 00:57:38 10° S 01:04:00 82° W 01:10:24 10° N
Nadezhda 4 Rocket 3.9 01:00:01 10° N 01:06:03 61° E 01:07:55 43° SE
CZ-4 R/B 4.4 01:07:19 10° SW 01:09:59 16° W 01:12:41 10° NW
GOES 2 Rocket 2.9 01:08:28 10° W 01:12:20 76° WSW 01:12:20 76° WSW
IUS-26 SRM-1 4.4 01:08:51 10° WSW 01:12:44 25° SSW 01:12:44 25° SSW
CENTAUR R/B 4.1 01:06:33 10° N 01:13:35 29° NE 01:14:15 28° ENE
Ariane Rocket 3.0 01:16:43 65° NE 01:16:43 65° NE 01:21:22 10° N
Cosmos 1707 4.4 01:18:18 10° NNW 01:21:45 32° W 01:23:09 24° SW
ARGOS 3.7 01:20:48 18° S 01:24:37 54° W 01:29:52 10° NNW
DELTA 2 R/B (1) 3.5 01:23:47 10° WNW 01:29:07 81° W 01:29:07 81° W
USA 238 DEB 4.2 01:22:24 10° NNW 01:29:18 47° NE 01:29:18 47° NE
USA 238 4.2 01:22:31 10° NNW 01:29:22 47° NE 01:29:22 47° NE
SL-08 RB Rocket 4.2 01:30:56 58° W 01:30:56 58° W 01:35:16 10° NNW
Cosmos 1634 Rocket 4.4 01:37:16 48° NNE 01:37:16 48° NNE 01:41:37 10° N
CZ-2C R/B 3.7 01:32:27 10° N 01:37:44 45° WNW 01:43:03 10° SW
NOSS 3-2 (A) 4.0 01:48:34 10° NNW 01:56:30 80° NE 01:56:30 80° NE
Milstar 3 Cent rocket 3.9 02:11:29 10° W 02:14:13 26° W 02:14:13 26° W
CENTAUR R/B 4.2 02:56:22 10° NW 03:01:27 40° NW 03:01:27 40° NW
MSX 4.5 08:43:01 10° NNE 08:47:06 48° NNE 08:47:06 48° NNE
Cosmos 1980 Rocket 4.2 08:52:46 16° NNW 08:52:46 16° NNW 08:54:05 10° N
Cosmos 2322 Rocket 2.6 08:55:32 56° SE 08:56:00 57° ESE 09:01:33 10° NNE
BREEZE-M DEB (TANK) 4.3 08:55:56 53° WNW 08:56:33 54° NW 09:01:12 10° NE
Cosmos 2263 Rocket 3.7 08:59:29 10° N 09:04:39 35° ENE 09:09:48 10° SE
SL-16 R/B 2.1 09:05:31 82° NNE 09:05:31 82° NNE 09:10:57 10° NNE
SL-4 R/B 3.7 09:08:18 30° N 09:08:18 30° N 09:11:03 10° NNE
H-2A R/B (2) 4.3 09:10:05 16° S 09:10:05 16° S 09:14:05 10° SSE
DELTA 4 R/B 4.2 09:03:12 38° W 09:11:01 75° SSW 09:16:49 10° ESE
Chandra Rocket (1) 4.0 09:05:32 36° W 09:12:53 75° SSW 09:18:46 10° ESE
Cosmos 44 Rocket 3.8 09:12:56 47° SE 09:13:34 51° ESE 09:18:10 10° NE
Meteor 1-10 Rocket 4.1 09:17:09 71° WSW 09:17:28 73° W 09:23:17 10° N
Cosmos 1763 Rocket 3.4 09:21:34 70° WNW 09:21:34 70° WNW 09:26:49 10° N
Cosmos 1869 Rocket 3.6 09:18:41 10° N 09:22:59 72° E 09:27:17 10° SSE
CZ-2C R/B 2.4 09:17:58 10° NNE 09:23:10 88° ESE 09:24:58 42° S
IRIDIUM 106 4.2 09:23:15 10° N 09:28:29 87° E 09:33:41 10° S
Cosmos 967 Rocket 4.4 09:27:03 48° SW 09:28:50 69° WNW 09:35:15 10° NNE
CZ-4B R/B 4.3 09:29:54 10° ESE 09:32:02 17° ENE 09:34:12 10° NNE
H-2A R/B 1.9 09:27:57 10° SSE 09:32:15 86° WSW 09:36:41 10° NNW
SJ 16-02 1.6 09:28:17 10° N 09:32:39 68° ENE 09:37:01 10° SSE
Cosmos 1570 Rocket 4.2 09:31:25 18° S 09:35:19 73° ESE 09:40:38 10° NNE
PSLV R/B 3.8 09:31:20 10° N 09:34:43 49° NW 09:34:43 49° NW
Meteor 1-5 Rocket 4.0 09:32:43 10° N 09:38:04 76° W 09:43:32 10° S
Cosmos 1605 Rocket 4.1 09:35:57 10° NNW 09:42:11 56° W 09:48:22 10° SSW
Landsat 5 3.6 09:38:21 10° S 09:42:47 60° W 09:47:15 10° NNW
Skynet4D Del rocket 3.6 09:41:59 43° WSW 09:43:48 71° S 09:49:49 10° ESE
ERS-2 2.3 09:41:46 10° SSE 09:45:23 71° ENE 09:49:02 10° N
Cosmos 2333 Rocket 4.2 09:41:05 10° SSE 09:45:53 28° ESE 09:50:42 10° NE
Cosmos 540 Rocket 3.3 09:44:37 20° SSW 09:48:15 80° WNW 09:53:27 10° NNE
PAYLOAD A 4.3 09:45:53 10° N 09:50:11 37° WNW 09:50:29 37° W
Yuri Rocket 3.9 09:48:34 30° SSW 09:50:15 44° SSE 09:55:25 10° E
SL-19 R/B 4.3 09:49:07 10° N 09:53:28 67° WNW 09:55:28 27° SSW
Cosmos 990 Rocket 4.1 09:48:19 10° NNW 09:53:32 77° ENE 09:58:44 10° SSE
ALOS 2.3 09:58:15 10° NNE 10:02:56 84° ESE 10:07:35 10° S
Cosmos 1484 Rocket 2.8 09:59:00 10° N 10:03:00 89° W 10:07:00 10° SSW
Hubble Space Telescope 3.4 10:06:59 10° S 10:08:38 12° SSE 10:10:19 10° SE
Cosmos 1437 Rocket 2.9 10:06:22 10° S 10:10:06 72° E 10:13:54 10° NNE
Cosmos 1536 2.7 10:06:07 10° N 10:10:11 76° W 10:14:13 10° S
Meteor 1-31 Rocket 2.6 10:10:42 10° N 10:14:31 78° WNW 10:18:22 10° SSW
DASH 3.4 10:14:08 20° W 10:16:28 30° SSW 10:19:01 10° SSE
IUS-13 SRM-1 4.1 10:16:47 10° SSW 10:17:18 10° S 10:17:54 10° S
Meteor 1-11 Rocket 3.8 10:12:18 10° NNW 10:17:48 51° W 10:23:10 10° SSW
Cosmos 2100 Rocket 4.0 10:12:32 10° N 10:18:54 75° W 10:25:13 10° S
Cosmos 1515 4.3 10:19:12 10° S 10:22:56 60° E 10:26:40 10° NNE
Cosmos 2360 Rocket 2.6 10:17:35 10° SW 10:22:57 43° WNW 10:28:19 10° N
deb Chang Zheng 4 4.1 10:19:23 10° N 10:23:17 35° WNW 10:27:07 10° SW
Cosmos 1802 Rocket 4.1 10:17:59 10° N 10:24:13 87° E 10:30:32 10° S
ADEOS Rocket 3.3 10:17:25 10° S 10:24:27 59° WSW 10:30:49 10° NNW
METEOR-M 4.1 10:23:01 10° N 10:28:19 65° WNW 10:33:36 10° SSW
Cosmos 1898 Rocket 3.7 10:24:17 10° NNW 10:29:21 50° WSW 10:34:27 10° S
ATLAS 2AS CENTAUR R/B 4.1 10:23:31 10° NNW 10:30:17 41° NE 10:36:32 10° SE
Cosmos 2123 Rocket 4.0 10:25:15 10° S 10:31:26 73° W 10:37:42 10° N
Cosmos 1666 3.8 10:29:23 10° NW 10:32:20 22° W 10:35:17 10° SW
SAR-Lupe-4 3.5 10:29:44 10° S 10:33:16 59° W 10:36:48 10° NNW
Cosmos 2242 Rocket 3.5 10:29:05 10° S 10:33:28 82° W 10:37:52 10° N
Cosmos 1459 Rocket 3.9 10:27:58 10° NNW 10:33:53 60° W 10:39:48 10° S
USA 234 3.3 10:29:57 10° SSE 10:36:26 71° SW 10:42:57 10° NW
Okean 1-7 3.4 10:33:04 10° S 10:37:17 70° E 10:41:31 10° N
FENGYUN 3A 4.1 10:34:44 10° N 10:39:44 40° WNW 10:44:44 10° SW
Cosmos 2322 Rocket 3.8 10:37:25 11° W 10:40:21 15° WNW 10:43:32 10° NNW
SAR-Lupe-1 4.5 10:42:05 10° S 10:45:25 39° W 10:48:48 10° NNW
SKYMED 2 3.9 10:42:56 10° SSE 10:47:14 74° ENE 10:51:34 10° N
H-2A R/B 4.1 10:43:52 10° NNE 10:47:22 42° E 10:50:51 10° S
Cosmos 2263 Rocket 3.3 10:43:57 10° NW 10:48:16 23° W 10:52:35 10° SSW
BREEZE-M DEB (TANK) 4.1 10:45:34 10° WSW 10:49:14 63° NW 11:01:53 10° NE
GEOS 3 Rocket 4.2 10:46:32 10° NE 10:51:52 64° ESE 10:57:06 10° SSW
